{"data":{"norad_id":64366,"intl_designator":"2025-126Y","name":"STARLINK-34484","alt_names":[],"object_type":"PAYLOAD","status":"ACTIVE","operator":null,"country":"US","launch_date":"2025-06-13","launch_site_code":"AFWTR","launch_vehicle":null,"mission":null,"orbit_class":"UNKNOWN","rcs_meters":null,"size_class":null,"mass_kg":null,"dimensions":null,"purposes":["comms"],"wikipedia_slug":null,"has_3d_model":false,"image_url":null,"decayed_at":null,"tle_current":{"epoch":"2026-05-25T02:49:30.842112Z","epoch_age_seconds":67916,"freshness":"FRESH","line1":"1 64366U 25126Y   26145.11771808  .00001298  00000+0  11652-3 0  9999","line2":"2 64366  70.0005 201.6051 0003745 265.1013  94.9719 14.98337058 53343","mean_motion":14.98337058,"eccentricity":0.0003745,"inclination_deg":70.0005,"raan_deg":201.6051,"arg_perigee_deg":265.1013,"mean_anomaly_deg":94.9719,"bstar":0.00011652,"rev_number":5334,"period_min":96.106546408332,"perigee_km":569.43122568356,"apogee_km":574.63690381106,"semimajor_km":6950.1710647473,"source":"CELESTRAK","updated_at":"2026-05-25T13:38:20.406979Z"}}}